This is the latest recevied weather packets stored in our database for station/object AI5BL. If no packets are shown the sender has not sent any weather packets the latest 10 day(s).
| Time | Temp. | Humidity | Pressure | Rain* | Wind** | Luminosity | Snow |
|---|---|---|---|---|---|---|---|
| 1777678645 | 10.56° C | 97% | 1015.6 hPa | 0 mm | - | 11 W/m² | - |
| 1777678343 | 10.56° C | 97% | 1015.6 hPa | 0 mm | - | 12 W/m² | - |
| 1777678038 | 10.56° C | 97% | 1015.6 hPa | 1.27 mm | - | 13 W/m² | - |
| 1777677736 | 10.56° C | 98% | 1015.2 hPa | 0 mm | - | 14 W/m² | - |
| 1777677433 | 10.56° C | 98% | 1015.4 hPa | 1.78 mm | - | 16 W/m² | - |
| 1777677131 | 10.56° C | 98% | 1015.7 hPa | 1.78 mm | - | 17 W/m² | - |
| 1777676830 | 10.56° C | 98% | 1015.9 hPa | 1.27 mm | - | 21 W/m² | - |
| 1777676528 | 10.56° C | 98% | 1015.6 hPa | 1.27 mm | - | 23 W/m² | - |
| 1777676225 | 10.56° C | 98% | 1015.6 hPa | 1.78 mm | - | 21 W/m² | - |
| 1777675922 | 10.56° C | 98% | 1015.4 hPa | 1.78 mm | - | 23 W/m² | - |
| 1777675618 | 10.56° C | 98% | 1015.6 hPa | 1.27 mm | - | 20 W/m² | - |
| 1777675315 | 10.56° C | 98% | 1015.7 hPa | 3.05 mm | - | 20 W/m² | - |
| 1777675012 | 10.56° C | 98% | 1015.9 hPa | 4.83 mm | - | 20 W/m² | - |
| 1777674709 | 10.56° C | 98% | 1015.9 hPa | 3.05 mm | - | 21 W/m² | - |
| 1777674399 | 10.56° C | 98% | 1015.8 hPa | 3.05 mm | - | 22 W/m² | - |
| 1777674097 | 11.11° C | 98% | 1015.9 hPa | 3.05 mm | - | 22 W/m² | - |
| 1777673793 | 11.11° C | 98% | 1016 hPa | 3.05 mm | - | 20 W/m² | - |
| 1777673491 | 11.11° C | 98% | 1016 hPa | 1.78 mm | - | 22 W/m² | - |
| 1777673188 | 11.11° C | 98% | 1015.7 hPa | 3.05 mm | - | 24 W/m² | - |
| 1777672884 | 11.11° C | 98% | 1015.5 hPa | 3.05 mm | - | 24 W/m² | - |
| 1777672581 | 11.11° C | 98% | 1015.4 hPa | 3.05 mm | - | 31 W/m² | - |
| 1777672276 | 11.11° C | 98% | 1015.2 hPa | 3.56 mm | - | 38 W/m² | - |
| 1777671971 | 11.11° C | 98% | 1015.5 hPa | 4.83 mm | - | 37 W/m² | - |
| 1777671667 | 11.67° C | 98% | 1015.5 hPa | 6.1 mm | - | 37 W/m² | - |
| 1777671364 | 11.67° C | 98% | 1015.4 hPa | 4.32 mm | - | 37 W/m² | - |
* Rain latest hour (hover to see other rain measurements)
** Current wind speed in m/s (hover to see current wind gust speed)